Weather History for Newport, VT

Change the Weather History Date:

Wednesday, November 21, 2012

  Actual Average Record
Temperature  
Mean Temperature 42 °F -  
Max Temperature 53 °F 38 °F 67 °F (1931)
Min Temperature 30 °F 23 °F -4 °F (1933)
Degree Days  
Heating Degree Days 24    
Moisture  
Dew Point 22 °F    
Average Humidity 56    
Maximum Humidity 81    
Minimum Humidity 21    
Precipitation  
Precipitation 0.00 in - - ()
Sea Level Pressure  
Sea Level Pressure 30.20 in    
Wind  
Wind Speed 3 mph (SSW)    
Max Wind Speed 8 mph    
Max Gust Speed -    
Visibility 10 miles    
Events      
Averages and records for this station are not official NWS values.
T = Trace of Precipitation, MM = Missing Value Source: NWS Daily Summary

Daily Weather History Graph

Daily Weather History Graph

Search for Another Location

Airport:

Trip Planner

Search our weather history database for the weather conditions in past years. The results will help you decide how hot, cold, wet, or windy it might be!

Date:

Astronomy

Nov. 21, 2012 Rise Set
Actual Time 6:54 AM EST 4:14 PM EST
Civil Twilight 6:22 AM EST 4:46 PM EST
Nautical Twilight 5:46 AM EST 5:22 PM EST
Astronomical Twilight 5:11 AM EST 5:57 PM EST
Moon 12:44 PM EST (11/21) No Moon Set
Length of Visible Light 10h 24m
Length of Day
9h 19m
First Quarter, 61% of the Moon is Illuminated
Nov 21
First Quarter
Nov 28
Full
Dec 6
Last Quarter
Dec 13
New
Dec 20
First Quarter

Hourly Weather History & Observations

Time (EST) Temp. Windchill Dew Point Humidity Pressure Visibility Wind Dir Wind Speed Gust Speed Precip Events Conditions
12:15 AM 32.7 °F - 26.2 °F 77% 30.17 in 10.0 mi Calm Calm - N/A   Mostly Cloudy
12:35 AM 32.0 °F - 25.7 °F 78% 30.17 in 10.0 mi Calm Calm - N/A   Overcast
12:55 AM 32.0 °F - 26.4 °F 80% 30.17 in 10.0 mi Calm Calm - N/A   Overcast
1:15 AM 32.5 °F - 26.2 °F 78% 30.17 in 10.0 mi Calm Calm - N/A   Mostly Cloudy
1:35 AM 32.0 °F 27.5 °F 25.5 °F 77% 30.17 in 10.0 mi SW 4.6 mph - N/A   Mostly Cloudy
1:55 AM 32.0 °F 27.5 °F 26.1 °F 79% 30.17 in 10.0 mi SW 4.6 mph - N/A   Overcast
2:15 AM 32.0 °F 28.7 °F 25.9 °F 78% 30.17 in 10.0 mi SW 3.5 mph - N/A   Scattered Clouds
2:35 AM 32.4 °F 29.1 °F 25.2 °F 75% 30.17 in 10.0 mi SW 3.5 mph - N/A   Mostly Cloudy
2:55 AM 30.6 °F 27.1 °F 24.8 °F 79% 30.18 in 7.0 mi SW 3.5 mph - N/A   Scattered Clouds
3:15 AM 31.3 °F - 25.0 °F 77% 30.17 in 7.0 mi Calm Calm - N/A   Clear
3:35 AM 30.9 °F - 25.5 °F 80% 30.17 in 7.0 mi Calm Calm - N/A   Scattered Clouds
3:55 AM 31.8 °F 27.3 °F 26.1 °F 79% 30.18 in 10.0 mi SW 4.6 mph - N/A   Overcast
4:15 AM 31.3 °F 26.6 °F 25.7 °F 80% 30.18 in 10.0 mi SW 4.6 mph - N/A   Overcast
4:35 AM 31.3 °F 26.6 °F 25.7 °F 80% 30.18 in 10.0 mi SW 4.6 mph - N/A   Overcast
4:55 AM 31.5 °F 26.8 °F 25.5 °F 79% 30.18 in 10.0 mi SW 4.6 mph - N/A   Overcast
5:15 AM 31.1 °F 25.4 °F 25.5 °F 80% 30.19 in 10.0 mi SW 5.8 mph - N/A   Mostly Cloudy
5:35 AM 31.1 °F 26.4 °F 25.5 °F 80% 30.20 in 10.0 mi SW 4.6 mph - N/A   Mostly Cloudy
5:55 AM 31.8 °F 28.5 °F 25.7 °F 78% 30.21 in 10.0 mi SW 3.5 mph - N/A   Overcast
6:15 AM 31.8 °F - 25.5 °F 78% 30.21 in 10.0 mi Calm Calm - N/A   Mostly Cloudy
6:55 AM 30.6 °F 25.8 °F 25.0 °F 80% 30.22 in 10.0 mi SW 4.6 mph - N/A   Clear
7:15 AM 30.2 °F 25.4 °F 25.0 °F 81% 30.23 in 7.0 mi SSW 4.6 mph - N/A   Clear
7:35 AM 31.1 °F 26.4 °F 25.0 °F 78% 30.23 in 10.0 mi SW 4.6 mph - N/A   Scattered Clouds
7:55 AM 31.8 °F 26.2 °F 26.6 °F 81% 30.23 in 7.0 mi SSW 5.8 mph - N/A   Mostly Cloudy
8:15 AM 32.4 °F 26.9 °F 26.6 °F 79% 30.23 in 10.0 mi SSW 5.8 mph - N/A   Overcast
8:35 AM 33.3 °F 27.9 °F 26.8 °F 77% 30.23 in 10.0 mi SW 5.8 mph - N/A   Overcast
8:55 AM 34.2 °F 30.0 °F 27.5 °F 77% 30.23 in 10.0 mi SW 4.6 mph - N/A   Overcast
9:15 AM 35.2 °F - 27.7 °F 74% 30.23 in 10.0 mi Calm Calm - N/A   Overcast
9:35 AM 36.1 °F 33.5 °F 28.4 °F 73% 30.23 in 10.0 mi SW 3.5 mph - N/A   Overcast
9:55 AM 38.1 °F 35.7 °F 29.5 °F 71% 30.23 in 10.0 mi WSW 3.5 mph - N/A   Scattered Clouds
10:15 AM 40.6 °F 38.6 °F 29.3 °F 64% 30.23 in 10.0 mi WSW 3.5 mph - N/A   Clear
10:35 AM 43.9 °F - 29.1 °F 56% 30.22 in 10.0 mi Calm Calm - N/A   Clear
10:55 AM 46.9 °F - 28.0 °F 48% 30.21 in 10.0 mi SSW 3.5 mph - N/A   Clear
11:15 AM 48.7 °F - 23.9 °F 38% 30.20 in 10.0 mi SSW 5.8 mph - N/A   Clear
11:35 AM 49.3 °F - 20.5 °F 32% 30.20 in 10.0 mi SSW 5.8 mph - N/A   Clear
11:55 AM 50.7 °F - 21.4 °F 32% 30.19 in 10.0 mi South 5.8 mph - N/A   Clear
12:15 PM 51.3 °F - 18.7 °F 28% 30.19 in 10.0 mi South 4.6 mph - N/A   Clear
12:35 PM 52.0 °F - 17.2 °F 25% 30.18 in 10.0 mi SSW 8.1 mph - N/A   Clear
12:55 PM 52.3 °F - 16.0 °F 24% 30.19 in 10.0 mi South 5.8 mph - N/A   Clear
1:15 PM 53.1 °F - 15.3 °F 22% 30.19 in 10.0 mi South 4.6 mph - N/A   Clear
1:35 PM 53.4 °F - 15.1 °F 22% 30.18 in 10.0 mi SSW 4.6 mph - N/A   Clear
1:55 PM 53.2 °F - 13.8 °F 21% 30.17 in 10.0 mi SSW 4.6 mph - N/A   Clear
2:15 PM 53.2 °F - 14.9 °F 22% 30.18 in 10.0 mi SW 3.5 mph - N/A   Clear
2:35 PM 53.2 °F - 14.0 °F 21% 30.19 in 10.0 mi SW 3.5 mph - N/A   Clear
2:55 PM 52.9 °F - 14.4 °F 22% 30.19 in 10.0 mi SW 4.6 mph - N/A   Clear
3:15 PM 52.2 °F - 14.4 °F 22% 30.19 in 10.0 mi SW 4.6 mph - N/A   Clear
3:35 PM 51.6 °F - 12.7 °F 21% 30.19 in 10.0 mi Calm Calm - N/A   Clear
3:55 PM 51.3 °F - 11.8 °F 21% 30.19 in 10.0 mi Calm Calm - N/A   Clear
4:15 PM 49.1 °F - 12.7 °F 23% 30.19 in 10.0 mi South 3.5 mph - N/A   Clear
4:35 PM 49.3 °F - 11.8 °F 22% 30.20 in 10.0 mi South 3.5 mph - N/A   Clear
4:55 PM 46.6 °F - 14.5 °F 28% 30.20 in 10.0 mi South 3.5 mph - N/A   Clear
5:15 PM 46.4 °F 45.2 °F 14.7 °F 28% 30.20 in 10.0 mi South 3.5 mph - N/A   Clear
5:35 PM 44.6 °F 42.2 °F 16.7 °F 33% 30.21 in 10.0 mi SSW 4.6 mph - N/A   Clear
5:55 PM 44.2 °F 41.8 °F 17.6 °F 34% 30.21 in 10.0 mi South 4.6 mph - N/A   Clear
6:15 PM 42.3 °F 40.5 °F 19.0 °F 39% 30.21 in 10.0 mi SSW 3.5 mph - N/A   Clear
6:35 PM 40.3 °F 36.3 °F 19.2 °F 43% 30.21 in 10.0 mi South 5.8 mph - N/A   Clear
6:55 PM 42.3 °F 40.5 °F 18.1 °F 38% 30.21 in 10.0 mi South 3.5 mph - N/A   Clear
7:15 PM 37.8 °F 34.2 °F 20.3 °F 49% 30.21 in 10.0 mi SSW 4.6 mph - N/A   Clear
7:35 PM 36.5 °F 32.7 °F 20.8 °F 53% 30.21 in 10.0 mi SW 4.6 mph - N/A   Clear
7:55 PM 34.7 °F 29.6 °F 21.4 °F 58% 30.21 in 10.0 mi SW 5.8 mph - N/A   Clear
8:15 PM 36.3 °F 33.7 °F 20.8 °F 53% 30.21 in 10.0 mi South 3.5 mph - N/A   Clear
8:35 PM 36.1 °F 32.3 °F 20.8 °F 54% 30.21 in 10.0 mi SW 4.6 mph - N/A   Clear
8:55 PM 33.4 °F 28.1 °F 21.2 °F 61% 30.22 in 10.0 mi SSW 5.8 mph - N/A   Clear
9:15 PM 33.8 °F 28.6 °F 21.6 °F 61% 30.22 in 10.0 mi SW 5.8 mph - N/A   Clear
9:35 PM 34.2 °F 29.0 °F 21.6 °F 60% 30.22 in 10.0 mi SW 5.8 mph - N/A   Clear
9:55 PM 34.7 °F 31.8 °F 21.6 °F 59% 30.22 in 10.0 mi South 3.5 mph - N/A   Clear
10:15 PM 32.9 °F 27.5 °F 22.6 °F 66% 30.22 in 10.0 mi SSW 5.8 mph - N/A   Clear
10:35 PM 32.4 °F 26.9 °F 22.1 °F 66% 30.22 in 10.0 mi SSW 5.8 mph - N/A   Clear
10:55 PM 34.0 °F 28.8 °F 22.1 °F 62% 30.22 in 10.0 mi SW 5.8 mph - N/A   Clear
11:15 PM 33.4 °F 29.1 °F 22.1 °F 63% 30.22 in 10.0 mi South 4.6 mph - N/A   Clear
11:35 PM 33.6 °F 29.4 °F 22.1 °F 63% 30.22 in 10.0 mi South 4.6 mph - N/A   Clear
11:55 PM 32.7 °F 27.3 °F 22.3 °F 65% 30.21 in 10.0 mi SSW 5.8 mph - N/A   Clear